Regional Weather Roundup
Issued by NWS Binghamton, NY

Home | Current Version | Previous Version | Text Only | Print | Product List | Glossary On
Versions: 1 2 3 4 5 6 7 8 9 10 11 12 13 14 15 16 17 18 19 20 21 22 23 24 25 26 27 28 29 30 31 32 33 34 35 36 37 38 39 40 41 42 43 44 45 46 47 48 49
000
ASUS41 KBGM 020010
RWRBGM
RWRBGM
BINGHAMTON REGIONAL WEATHER ROUNDUP
NATIONAL WEATHER SERVICE BINGHAMTON NY
700 PM EST SUN MAR 01 2015

Note: "fair" indicates few or no clouds below 12,000 feet with no
significant weather and/or obstructions to visibility.

* = Station(s) that does not report precipitation, such as rain,
snow, etc, also no thunder or fog.

!NYZ009-015>018-022>025-036-037-044>046-055>057-062-020100
...CENTRAL NEW YORK...

CITY           SKY/WX    TMP DP  RH WIND       PRES   REMARKS
BINGHAMTON     LGT SNOW  22  20  92 S5        30.14F FOG     WCI  16
CORTLAND       LGT SNOW  27  27 100 CALM      30.17S
DANSVILLE      LGT SNOW  27  24  89 NW7       30.16F FOG     WCI  19
ELMIRA         LGT SNOW  25  25 100 CALM      30.17F VSB 1
ITHACA         LGT SNOW  25  21  84 S8        30.17F FOG     WCI  16
MONTICELLO     CLOUDY    19  18  93 S5        30.21F WCI  13
NORWICH        LGT SNOW  23  21  93 S6        30.19S WCI  16
ONEONTA        LGT SNOW  21  18  86 SW8       30.13S WCI  12
PENN YAN       LGT SNOW  27  24  89 S9        30.14F FOG     WCI  18
ROME           LGT SNOW  22  20  92 SE7       30.21F FOG     WCI  13
SIDNEY         LGT SNOW  25  23  93 W3        30.19S
SYRACUSE       LGT SNOW  22  21  98 E5        30.18F FOG     WCI  15
$$

!PAZ038>040-043-044-047-048-072-020100
...NORTHEAST PENNSYLVANIA...

CITY           SKY/WX    TMP DP  RH WIND       PRES   REMARKS
HAZLETON       FLURRIES  23  19  86 CALM      30.23S
SCRANTON       LGT SNOW  25  20  81 SW6       30.23S WCI  18
TOWANDA*         N/A     27  21  80 SW3       30.21F
$$
&&
KEY
WCI = WIND CHILL INDEX
VSB = VISIBILITY
HX  = HEAT INDEX
$$


USA.gov is the U.S. government's official web portal to all federal, state and local government web resources and services.